Year,Month,Day,Hour,Minute,Value (Times are PST for temperature in C)
2020,05,05,08,12,9.80
2020,05,05,08,13,9.80
2020,05,05,08,14,9.90
2020,05,05,08,15,9.90
2020,05,05,08,16,10.00
2020,05,05,08,17,10.00
2020,05,05,08,18,10.10
2020,05,05,08,19,10.10
2020,05,05,08,20,10.20
2020,05,05,08,21,10.30
2020,05,05,08,22,10.40
2020,05,05,08,23,10.50
2020,05,05,08,24,10.60
2020,05,05,08,25,10.70
2020,05,05,08,26,10.80
2020,05,05,08,27,10.90
2020,05,05,08,28,10.90
2020,05,05,08,29,10.90
2020,05,05,08,30,10.90
2020,05,05,08,31,11.00
2020,05,05,08,32,11.00
2020,05,05,08,33,11.10
2020,05,05,08,34,11.10
2020,05,05,08,35,11.10
2020,05,05,08,36,11.10
2020,05,05,08,37,11.10
2020,05,05,08,38,11.10
2020,05,05,08,39,11.10
2020,05,05,08,40,11.10
2020,05,05,08,41,11.10
2020,05,05,08,42,11.10
2020,05,05,08,43,11.20
2020,05,05,08,44,11.20
2020,05,05,08,45,11.30
2020,05,05,08,46,11.20
2020,05,05,08,47,11.20
2020,05,05,08,48,11.30
2020,05,05,08,49,11.30
2020,05,05,08,50,11.30
2020,05,05,08,51,11.30
2020,05,05,08,52,11.30
2020,05,05,08,53,11.40
2020,05,05,08,54,11.40
2020,05,05,08,55,11.40
2020,05,05,08,56,11.50
2020,05,05,08,57,11.60
2020,05,05,08,58,11.60
2020,05,05,08,59,11.60
2020,05,05,09,00,11.50
2020,05,05,09,01,11.50
2020,05,05,09,02,11.60
2020,05,05,09,03,11.50
2020,05,05,09,04,11.50
2020,05,05,09,05,11.50
2020,05,05,09,06,11.60
2020,05,05,09,07,11.60
2020,05,05,09,08,11.70
2020,05,05,09,09,11.70
2020,05,05,09,10,11.70
2020,05,05,09,11,11.70
2020,05,05,09,12,11.60
2020,05,05,09,13,11.60
2020,05,05,09,14,11.60
2020,05,05,09,15,11.60
2020,05,05,09,16,11.60
2020,05,05,09,17,11.50
2020,05,05,09,18,11.40
2020,05,05,09,19,11.30
2020,05,05,09,20,11.40
2020,05,05,09,21,11.40
2020,05,05,09,22,11.40
2020,05,05,09,23,11.30
2020,05,05,09,24,11.30
2020,05,05,09,25,11.30
2020,05,05,09,26,11.30
2020,05,05,09,27,11.20
2020,05,05,09,28,11.30
2020,05,05,09,29,11.30
2020,05,05,09,30,11.40
2020,05,05,09,31,11.40
2020,05,05,09,32,11.40
2020,05,05,09,33,11.40
2020,05,05,09,34,11.40
2020,05,05,09,35,11.50
2020,05,05,09,36,11.60
2020,05,05,09,37,11.60
2020,05,05,09,38,11.60
2020,05,05,09,39,11.70
2020,05,05,09,40,11.70
2020,05,05,09,41,11.60
2020,05,05,09,42,11.60
2020,05,05,09,43,11.60
2020,05,05,09,44,11.60
2020,05,05,09,45,11.70
2020,05,05,09,46,11.60
2020,05,05,09,47,11.60
2020,05,05,09,48,11.60
2020,05,05,09,49,11.60
2020,05,05,09,50,11.50
2020,05,05,09,51,11.40
2020,05,05,09,52,11.30
2020,05,05,09,53,11.30
2020,05,05,09,54,11.30
2020,05,05,09,55,11.40
2020,05,05,09,56,11.50
2020,05,05,09,57,11.50
2020,05,05,09,58,11.40
2020,05,05,09,59,11.40
2020,05,05,10,00,11.50
2020,05,05,10,01,11.60
2020,05,05,10,02,11.60
2020,05,05,10,03,11.60
2020,05,05,10,04,11.70
2020,05,05,10,05,11.80
2020,05,05,10,06,11.70
2020,05,05,10,07,11.70
2020,05,05,10,08,11.70
2020,05,05,10,09,11.60
2020,05,05,10,10,11.60
2020,05,05,10,11,11.50
2020,05,05,10,12,11.40
2020,05,05,10,13,11.40
2020,05,05,10,14,11.40
2020,05,05,10,15,11.50
2020,05,05,10,16,11.50
2020,05,05,10,17,11.50
2020,05,05,10,18,11.50
2020,05,05,10,19,11.50
2020,05,05,10,20,11.40
2020,05,05,10,21,11.40
2020,05,05,10,22,11.40
2020,05,05,10,23,11.50
2020,05,05,10,24,11.50
2020,05,05,10,25,11.40
2020,05,05,10,26,11.40
2020,05,05,10,27,11.40
2020,05,05,10,28,11.40
2020,05,05,10,29,11.30
2020,05,05,10,30,11.40
2020,05,05,10,31,11.40
2020,05,05,10,32,11.50
2020,05,05,10,33,11.60
2020,05,05,10,34,11.60
2020,05,05,10,35,11.60
2020,05,05,10,36,11.60
2020,05,05,10,37,11.50
2020,05,05,10,38,11.50
2020,05,05,10,39,11.40
2020,05,05,10,40,11.50
2020,05,05,10,41,11.50
2020,05,05,10,42,11.50
2020,05,05,10,43,11.60
2020,05,05,10,44,11.50
2020,05,05,10,45,11.50
2020,05,05,10,46,11.50
2020,05,05,10,47,11.60
2020,05,05,10,48,11.70
2020,05,05,10,49,11.70
2020,05,05,10,50,11.70
2020,05,05,10,51,11.80
2020,05,05,10,52,11.80
2020,05,05,10,53,11.90
2020,05,05,10,54,11.90
2020,05,05,10,55,12.10
2020,05,05,10,56,12.20
2020,05,05,10,57,12.10
2020,05,05,10,58,12.10
2020,05,05,10,59,12.10
2020,05,05,11,00,12.10
2020,05,05,11,01,12.10
2020,05,05,11,02,12.10
2020,05,05,11,03,12.10
2020,05,05,11,04,12.10
2020,05,05,11,05,12.00
2020,05,05,11,06,11.90
2020,05,05,11,07,11.90
2020,05,05,11,08,11.90
2020,05,05,11,09,12.00
2020,05,05,11,10,12.20
2020,05,05,11,11,12.30
2020,05,05,11,12,12.20
2020,05,05,11,13,12.20
2020,05,05,11,14,12.20
2020,05,05,11,15,12.20
2020,05,05,11,16,12.10
2020,05,05,11,17,12.20
2020,05,05,11,18,12.20
2020,05,05,11,19,12.30
2020,05,05,11,20,12.20
2020,05,05,11,21,12.20
2020,05,05,11,22,12.30
2020,05,05,11,23,12.40
2020,05,05,11,24,12.40
2020,05,05,11,25,12.40
2020,05,05,11,26,12.40
2020,05,05,11,27,12.40
2020,05,05,11,28,12.40
2020,05,05,11,29,12.40
2020,05,05,11,30,12.40
2020,05,05,11,31,12.50
2020,05,05,11,32,12.40
2020,05,05,11,33,12.30
2020,05,05,11,34,12.30
2020,05,05,11,35,12.30
2020,05,05,11,36,12.40
2020,05,05,11,37,12.40
2020,05,05,11,38,12.50
2020,05,05,11,39,12.60
2020,05,05,11,40,12.50
2020,05,05,11,41,12.50
2020,05,05,11,42,12.50
2020,05,05,11,43,12.40
2020,05,05,11,44,12.40
2020,05,05,11,45,12.40
2020,05,05,11,46,12.40
2020,05,05,11,47,12.40
2020,05,05,11,48,12.40
2020,05,05,11,49,12.40
2020,05,05,11,50,12.40
2020,05,05,11,51,12.40
2020,05,05,11,52,12.40
2020,05,05,11,53,12.40
2020,05,05,11,54,12.40
2020,05,05,11,55,12.50
2020,05,05,11,56,12.60
2020,05,05,11,57,12.70
2020,05,05,11,58,12.80
2020,05,05,11,59,12.80
2020,05,05,12,00,12.70
2020,05,05,12,01,12.70
2020,05,05,12,02,12.60
2020,05,05,12,03,12.60
2020,05,05,12,04,12.60
2020,05,05,12,05,12.70
2020,05,05,12,06,12.70
2020,05,05,12,07,12.70
2020,05,05,12,08,12.60
2020,05,05,12,09,12.60
2020,05,05,12,10,12.60
2020,05,05,12,11,12.60
2020,05,05,12,12,12.70
2020,05,05,12,13,12.90
2020,05,05,12,14,13.00
2020,05,05,12,15,12.90
2020,05,05,12,16,12.80
2020,05,05,12,17,12.70
2020,05,05,12,18,12.70
2020,05,05,12,19,12.70
2020,05,05,12,20,12.70
2020,05,05,12,21,12.70
2020,05,05,12,22,12.80
2020,05,05,12,23,12.80
2020,05,05,12,24,12.80
2020,05,05,12,25,12.80
2020,05,05,12,26,12.80
2020,05,05,12,27,12.80
2020,05,05,12,28,12.80
2020,05,05,12,29,12.90
2020,05,05,12,30,13.00
2020,05,05,12,31,12.90
2020,05,05,12,32,12.90
2020,05,05,12,33,13.00
2020,05,05,12,34,13.10
2020,05,05,12,35,13.20
2020,05,05,12,36,13.30
2020,05,05,12,37,13.30
2020,05,05,12,38,13.30
2020,05,05,12,39,13.30
2020,05,05,12,40,13.30
2020,05,05,12,41,13.20
2020,05,05,12,42,13.20
2020,05,05,12,43,13.20
2020,05,05,12,44,13.20
2020,05,05,12,45,13.20
2020,05,05,12,46,13.20
2020,05,05,12,47,13.20
2020,05,05,12,48,13.40
2020,05,05,12,49,13.40
2020,05,05,12,50,13.40
2020,05,05,12,51,13.40
2020,05,05,12,52,13.50
2020,05,05,12,53,13.60
2020,05,05,12,54,13.70
2020,05,05,12,55,13.70
2020,05,05,12,56,13.70
2020,05,05,12,57,13.60
2020,05,05,12,58,13.50
2020,05,05,12,59,13.60
2020,05,05,13,00,13.70
2020,05,05,13,01,13.80
2020,05,05,13,02,13.90
2020,05,05,13,03,13.90
2020,05,05,13,04,13.70
2020,05,05,13,05,13.60
2020,05,05,13,06,13.60
2020,05,05,13,07,13.60
2020,05,05,13,08,13.60
2020,05,05,13,09,13.60
2020,05,05,13,10,13.70
2020,05,05,13,11,13.70
2020,05,05,13,12,13.70
2020,05,05,13,13,13.60
2020,05,05,13,14,13.60
2020,05,05,13,15,13.60
2020,05,05,13,16,13.50
2020,05,05,13,17,13.40
2020,05,05,13,18,13.30
2020,05,05,13,19,13.40
2020,05,05,13,20,13.50
2020,05,05,13,21,13.60
2020,05,05,13,22,13.60
2020,05,05,13,23,13.60
2020,05,05,13,24,13.50
2020,05,05,13,25,13.60
2020,05,05,13,26,13.60
2020,05,05,13,27,13.80
2020,05,05,13,28,14.00
2020,05,05,13,29,14.10
2020,05,05,13,30,14.20
2020,05,05,13,31,14.10
2020,05,05,13,32,14.00
2020,05,05,13,33,14.00
2020,05,05,13,34,13.90
2020,05,05,13,35,14.00
2020,05,05,13,36,13.90
2020,05,05,13,37,13.90
2020,05,05,13,38,13.80
2020,05,05,13,39,13.80
2020,05,05,13,40,13.80
2020,05,05,13,41,13.80
2020,05,05,13,42,13.70
2020,05,05,13,43,13.70
2020,05,05,13,44,13.80
2020,05,05,13,45,13.80
2020,05,05,13,46,13.80
2020,05,05,13,47,13.80
2020,05,05,13,48,13.80
2020,05,05,13,49,13.80
2020,05,05,13,50,13.70
2020,05,05,13,51,13.70
2020,05,05,13,52,13.70
2020,05,05,13,53,13.70
2020,05,05,13,54,13.70
2020,05,05,13,55,13.70
2020,05,05,13,56,13.70
2020,05,05,13,57,13.60
2020,05,05,13,58,13.60
2020,05,05,13,59,13.70
2020,05,05,14,00,13.70
2020,05,05,14,01,13.80
2020,05,05,14,02,13.90
2020,05,05,14,03,13.90
2020,05,05,14,04,13.90
2020,05,05,14,05,13.90
2020,05,05,14,06,13.90
2020,05,05,14,07,14.00
2020,05,05,14,08,14.00
2020,05,05,14,09,14.10
2020,05,05,14,10,14.10
2020,05,05,14,11,14.20
2020,05,05,14,12,14.20
2020,05,05,14,13,14.20
2020,05,05,14,14,14.20
2020,05,05,14,15,14.10
2020,05,05,14,16,14.10
2020,05,05,14,17,14.10
2020,05,05,14,18,14.00
2020,05,05,14,19,14.00
2020,05,05,14,20,14.00
2020,05,05,14,21,14.00
2020,05,05,14,22,14.20
2020,05,05,14,23,14.20
2020,05,05,14,24,14.20
2020,05,05,14,25,14.20
2020,05,05,14,26,14.20
2020,05,05,14,27,14.30
2020,05,05,14,28,14.30
2020,05,05,14,29,14.40
2020,05,05,14,30,14.50
2020,05,05,14,31,14.50
2020,05,05,14,32,14.50
2020,05,05,14,33,14.60
2020,05,05,14,34,14.60
2020,05,05,14,35,14.50
2020,05,05,14,36,14.50
2020,05,05,14,37,14.40
2020,05,05,14,38,14.40
2020,05,05,14,39,14.50
2020,05,05,14,40,14.60
2020,05,05,14,41,14.70
2020,05,05,14,42,14.70
2020,05,05,14,43,14.80
2020,05,05,14,44,14.80
2020,05,05,14,45,14.80
2020,05,05,14,46,14.80
2020,05,05,14,47,14.90
2020,05,05,14,48,15.00
2020,05,05,14,49,15.00
2020,05,05,14,50,15.00
2020,05,05,14,51,15.10
2020,05,05,14,52,15.10
2020,05,05,14,53,15.00
2020,05,05,14,54,15.00
2020,05,05,14,55,15.00
2020,05,05,14,56,15.10
2020,05,05,14,57,15.20
2020,05,05,14,58,15.20
2020,05,05,14,59,15.30
2020,05,05,15,00,15.20
2020,05,05,15,01,15.20
2020,05,05,15,02,15.20
2020,05,05,15,03,15.20
2020,05,05,15,04,15.20
2020,05,05,15,05,15.20
2020,05,05,15,06,15.20
2020,05,05,15,07,15.10
2020,05,05,15,08,15.10
2020,05,05,15,09,15.00
2020,05,05,15,10,15.00
2020,05,05,15,11,15.00
2020,05,05,15,12,15.00
2020,05,05,15,13,15.00
2020,05,05,15,14,15.00
2020,05,05,15,15,15.10
2020,05,05,15,16,15.10
2020,05,05,15,17,15.10
2020,05,05,15,18,15.20
2020,05,05,15,19,15.30
2020,05,05,15,20,15.40
2020,05,05,15,21,15.50
2020,05,05,15,22,15.40
2020,05,05,15,23,15.20
2020,05,05,15,24,15.10
2020,05,05,15,25,15.00
2020,05,05,15,26,15.00
2020,05,05,15,27,15.00
2020,05,05,15,28,15.10
2020,05,05,15,29,15.20
2020,05,05,15,30,15.10
2020,05,05,15,31,15.10
2020,05,05,15,32,15.20
2020,05,05,15,33,15.40
2020,05,05,15,34,15.50
2020,05,05,15,35,15.50
2020,05,05,15,36,15.40
2020,05,05,15,37,15.40
2020,05,05,15,38,15.40
2020,05,05,15,39,15.40
2020,05,05,15,40,15.40
2020,05,05,15,41,15.50
2020,05,05,15,42,15.50
2020,05,05,15,43,15.50
2020,05,05,15,44,15.60
2020,05,05,15,45,15.50
2020,05,05,15,46,15.50
2020,05,05,15,47,15.40
2020,05,05,15,48,15.40
2020,05,05,15,49,15.40
2020,05,05,15,50,15.40
2020,05,05,15,51,15.50
2020,05,05,15,52,15.50
2020,05,05,15,53,15.40
2020,05,05,15,54,15.40
2020,05,05,15,55,15.40
2020,05,05,15,56,15.40
2020,05,05,15,57,15.30
2020,05,05,15,58,15.40
2020,05,05,15,59,15.50
2020,05,05,16,00,15.50
2020,05,05,16,01,15.60
2020,05,05,16,02,15.60
2020,05,05,16,03,15.60
2020,05,05,16,04,15.60
2020,05,05,16,05,15.60
2020,05,05,16,06,15.60
2020,05,05,16,07,15.60
2020,05,05,16,08,15.60
2020,05,05,16,09,15.50
2020,05,05,16,10,15.40
2020,05,05,16,11,15.30
2020,05,05,16,12,15.30
2020,05,05,16,13,15.40
2020,05,05,16,14,15.40
2020,05,05,16,15,15.40
2020,05,05,16,16,15.40
2020,05,05,16,17,15.30
2020,05,05,16,18,15.40
2020,05,05,16,19,15.40
2020,05,05,16,20,15.40
2020,05,05,16,21,15.30
2020,05,05,16,22,15.40
2020,05,05,16,23,15.50
2020,05,05,16,24,15.50
2020,05,05,16,25,15.40
2020,05,05,16,26,15.30
2020,05,05,16,27,15.30
2020,05,05,16,28,15.30
2020,05,05,16,29,15.30
2020,05,05,16,30,15.50
2020,05,05,16,31,15.60
2020,05,05,16,32,15.60
2020,05,05,16,33,15.60
2020,05,05,16,34,15.70
2020,05,05,16,35,15.80
2020,05,05,16,36,15.80
2020,05,05,16,37,15.80
2020,05,05,16,38,15.80
2020,05,05,16,39,15.70
2020,05,05,16,40,15.70
2020,05,05,16,41,15.70
2020,05,05,16,42,15.80
2020,05,05,16,43,15.80
2020,05,05,16,44,15.80
2020,05,05,16,45,15.70
2020,05,05,16,46,15.70
2020,05,05,16,47,15.70
2020,05,05,16,48,15.60
2020,05,05,16,49,15.60
2020,05,05,16,50,15.60
2020,05,05,16,51,15.60
2020,05,05,16,52,15.80
2020,05,05,16,53,15.80
2020,05,05,16,54,15.80
2020,05,05,16,55,15.80
2020,05,05,16,56,15.80
2020,05,05,16,57,15.80
2020,05,05,16,58,15.80
2020,05,05,16,59,15.90
2020,05,05,17,00,15.90
2020,05,05,17,01,16.00
2020,05,05,17,02,16.00
2020,05,05,17,03,16.00
2020,05,05,17,04,15.90
2020,05,05,17,05,15.90
2020,05,05,17,06,16.00
2020,05,05,17,07,16.00
2020,05,05,17,08,16.00
2020,05,05,17,09,16.00
2020,05,05,17,10,16.00
2020,05,05,17,11,16.10
2020,05,05,17,12,16.10
2020,05,05,17,13,16.00
2020,05,05,17,14,16.00
2020,05,05,17,15,16.00
2020,05,05,17,16,15.90
2020,05,05,17,17,15.90
2020,05,05,17,18,15.90
2020,05,05,17,19,16.00
2020,05,05,17,20,16.10
2020,05,05,17,21,16.20
2020,05,05,17,22,16.30
2020,05,05,17,23,16.40
2020,05,05,17,24,16.40
2020,05,05,17,25,16.30
2020,05,05,17,26,16.30
2020,05,05,17,27,16.30
2020,05,05,17,28,16.30
2020,05,05,17,29,16.40
2020,05,05,17,30,16.50
2020,05,05,17,31,16.60
2020,05,05,17,32,16.70
2020,05,05,17,33,16.60
2020,05,05,17,34,16.60
2020,05,05,17,35,16.50
2020,05,05,17,36,16.50
2020,05,05,17,37,16.40
2020,05,05,17,38,16.30
2020,05,05,17,39,16.30
2020,05,05,17,40,16.20
2020,05,05,17,41,16.30
2020,05,05,17,42,16.30
2020,05,05,17,43,16.30
2020,05,05,17,44,16.40
2020,05,05,17,45,16.50
2020,05,05,17,46,16.60
2020,05,05,17,47,16.60
2020,05,05,17,48,16.70
2020,05,05,17,49,16.80
2020,05,05,17,50,16.90
2020,05,05,17,51,16.90
2020,05,05,17,52,17.00
2020,05,05,17,53,17.10
2020,05,05,17,54,17.10
2020,05,05,17,55,17.00
2020,05,05,17,56,16.90
2020,05,05,17,57,16.90
2020,05,05,17,58,16.80
2020,05,05,17,59,16.80
2020,05,05,18,00,16.80
2020,05,05,18,01,16.80
2020,05,05,18,02,16.90
2020,05,05,18,03,17.00
2020,05,05,18,04,17.00
2020,05,05,18,05,17.10
2020,05,05,18,06,17.20
2020,05,05,18,07,17.10
2020,05,05,18,08,17.00
2020,05,05,18,09,17.00
2020,05,05,18,10,17.10
2020,05,05,18,11,17.10
2020,05,05,18,12,17.10
2020,05,05,18,13,17.10
2020,05,05,18,14,17.10
2020,05,05,18,15,17.10
2020,05,05,18,16,17.10
2020,05,05,18,17,17.10
2020,05,05,18,18,17.10
2020,05,05,18,19,17.10
2020,05,05,18,20,17.10
2020,05,05,18,21,17.00
2020,05,05,18,22,16.90
2020,05,05,18,23,16.80
2020,05,05,18,24,16.70
2020,05,05,18,25,16.70
2020,05,05,18,26,16.60
2020,05,05,18,27,16.60
2020,05,05,18,28,16.60
2020,05,05,18,29,16.50
2020,05,05,18,30,16.50
2020,05,05,18,31,16.40
2020,05,05,18,32,16.40
2020,05,05,18,33,16.40
2020,05,05,18,34,16.30
2020,05,05,18,35,16.30
2020,05,05,18,36,16.30
2020,05,05,18,37,16.30
2020,05,05,18,38,16.40
2020,05,05,18,39,16.40
2020,05,05,18,40,16.40
2020,05,05,18,41,16.50
2020,05,05,18,42,16.50
2020,05,05,18,43,16.60
2020,05,05,18,44,16.60
2020,05,05,18,45,16.70
2020,05,05,18,46,16.70
2020,05,05,18,47,16.70
2020,05,05,18,48,16.70
2020,05,05,18,49,16.70
2020,05,05,18,50,16.60
2020,05,05,18,51,16.60
2020,05,05,18,52,16.60
2020,05,05,18,53,16.60
2020,05,05,18,54,16.60
2020,05,05,18,55,16.60
2020,05,05,18,56,16.60
2020,05,05,18,57,16.70
2020,05,05,18,58,16.70
2020,05,05,18,59,16.70
2020,05,05,19,00,16.70
2020,05,05,19,01,16.70
2020,05,05,19,02,16.70
2020,05,05,19,03,16.80
2020,05,05,19,04,16.80
2020,05,05,19,05,16.80
2020,05,05,19,06,16.80
2020,05,05,19,07,16.80
2020,05,05,19,08,16.90
2020,05,05,19,09,16.90
2020,05,05,19,10,16.90
2020,05,05,19,11,16.90
2020,05,05,19,12,16.90
2020,05,05,19,13,16.80
2020,05,05,19,14,16.80
2020,05,05,19,15,16.70
2020,05,05,19,16,16.70
2020,05,05,19,17,16.70
2020,05,05,19,18,16.60
2020,05,05,19,19,16.50
2020,05,05,19,20,16.50
2020,05,05,19,21,16.50
2020,05,05,19,22,16.40
2020,05,05,19,23,16.30
2020,05,05,19,24,16.30
2020,05,05,19,25,16.30
2020,05,05,19,26,16.20
2020,05,05,19,27,16.20
2020,05,05,19,28,16.20
2020,05,05,19,29,16.20
2020,05,05,19,30,16.20
2020,05,05,19,31,16.20
2020,05,05,19,32,16.20
2020,05,05,19,33,16.20
2020,05,05,19,34,16.20
2020,05,05,19,35,16.20
2020,05,05,19,36,16.30
2020,05,05,19,37,16.30
2020,05,05,19,38,16.30
2020,05,05,19,39,16.30
2020,05,05,19,40,16.40
2020,05,05,19,41,16.40
2020,05,05,19,42,16.40
2020,05,05,19,43,16.40
2020,05,05,19,44,16.30
2020,05,05,19,45,16.20
2020,05,05,19,46,16.20
2020,05,05,19,47,16.10
2020,05,05,19,48,16.10
2020,05,05,19,49,16.10
2020,05,05,19,50,16.10
2020,05,05,19,51,16.10
2020,05,05,19,52,16.10
2020,05,05,19,53,16.10
2020,05,05,19,54,16.10
2020,05,05,19,55,16.10
2020,05,05,19,56,16.10
2020,05,05,19,57,16.10
2020,05,05,19,58,16.10
2020,05,05,19,59,16.10
2020,05,05,20,00,16.20
2020,05,05,20,01,16.20
2020,05,05,20,02,16.20
2020,05,05,20,03,16.20
2020,05,05,20,04,16.20
2020,05,05,20,05,16.20
2020,05,05,20,06,16.20
2020,05,05,20,07,16.20
2020,05,05,20,08,16.20
2020,05,05,20,09,16.20
2020,05,05,20,10,16.20
2020,05,05,20,11,16.10
2020,05,05,20,12,16.00
2020,05,05,20,13,16.00
2020,05,05,20,14,15.90
2020,05,05,20,15,15.90
2020,05,05,20,16,15.90
2020,05,05,20,17,15.90
2020,05,05,20,18,15.90
2020,05,05,20,19,15.90
2020,05,05,20,20,15.80
2020,05,05,20,21,15.70
2020,05,05,20,22,15.60
2020,05,05,20,23,15.40
2020,05,05,20,24,15.30
2020,05,05,20,25,15.30
2020,05,05,20,26,15.30
2020,05,05,20,27,15.30
2020,05,05,20,28,15.30
2020,05,05,20,29,15.30
2020,05,05,20,30,15.30
2020,05,05,20,31,15.30
2020,05,05,20,32,15.30
2020,05,05,20,33,15.30
2020,05,05,20,34,15.30
2020,05,05,20,35,15.30
